#timestamp,LO_Frequency,Hit 
1500451215.9,286046990.7,N
1500451235.7,286046991.5,N
1500451255.6,286046988.9,N
1500451275.4,286046990.9,N
1500451295.2,286046993.0,N
1500451315.1,286046990.3,N
1500451316.0,286046990.3,N
1500451335.8,286046991.3,N
1500451355.7,286046991.3,N
1500451375.5,286046990.6,N
1500451395.4,286046991.0,N
1500451415.2,286046993.2,N
1500451435.0,286046990.1,N
1500451435.9,286046990.1,N
1500451455.8,286046990.3,N
1500451475.6,286046991.1,N
1500451495.5,286046990.7,N
1500451515.3,286046990.2,N
1500451535.1,286046990.3,N
1500451555.9,286046992.5,N
1500451575.7,286046992.4,N
1500451595.5,286046992.7,N
1500451615.4,286046994.3,N
1500451635.2,286046993.0,N
1500451655.1,286046991.7,N
1500451656.0,286046991.7,N
1500451675.8,286046994.3,N
1500451695.6,286046991.8,N
1500451715.5,286046992.3,N
1500451735.3,286046992.3,N
1500451755.2,286046994.3,N
1500451775.0,286046992.4,N
1500451775.9,286046992.4,N
1500451795.7,286046992.6,N
1500451815.6,286046993.0,N
1500451835.4,286046992.0,N
1500451855.3,286046992.3,N
1500451875.1,286046992.2,N
1500451895.8,286046994.4,N
1500451915.7,286046992.0,N
1500451935.5,286046993.1,N
1500451955.4,286046992.2,N
1500451975.2,286046993.4,N
1500451995.0,286046995.4,N
1500451995.9,286046995.4,N
1500452015.8,286046995.1,N
1500452035.6,286046996.4,N
1500452055.4,286046994.7,N
1500452075.3,286046994.4,N
1500452095.1,286046994.8,N
1500452115.9,286046992.2,N
1500452135.7,286046994.8,N
1500452155.5,286046992.0,N
1500452175.4,286046992.5,N
1500452195.2,286046992.9,N
1500452215.0,286046992.9,N
1500452215.9,286046992.9,N
1500452235.8,286046992.5,N
1500452255.6,286046994.8,N
1500452275.5,286046994.7,N
1500452295.3,286046994.5,N
1500452315.1,286046994.2,N
1500452335.9,286046996.3,N
1500452355.7,286046993.4,N
1500452375.5,286046995.7,N
1500452395.4,286046993.3,N
1500452415.2,286046993.3,N
1500452435.1,286046994.1,N
1500452436.0,286046994.1,N
1500452455.8,286046991.7,N
1500452475.6,286046992.1,N
1500452495.5,286046991.7,N
1500452515.3,286046994.4,N
1500452535.2,286046994.0,N
1500452555.9,286046994.3,N
1500452575.7,286046994.2,N
1500452595.6,286046993.5,N
1500452615.4,286046994.1,N
1500452635.2,286046991.7,N
1500452655.1,286046994.2,N
1500452656.0,286046994.2,N
1500452675.8,286046994.5,N
1500452695.7,286046994.7,N
1500452715.5,286046993.5,N
1500452735.3,286046994.1,N
1500452755.2,286046993.7,N
1500452775.0,286046993.3,N
1500452775.9,286046993.3,N
1500452795.7,286046996.0,N
1500452815.6,286046993.3,N
1500452835.4,286046996.2,N
1500452855.3,286046994.6,N
1500452875.1,286046993.6,N
1500452895.8,286046994.6,N
1500452915.7,286046994.4,N
1500452935.5,286046994.5,N
1500452955.4,286046993.7,N
1500452975.2,286046993.3,N
1500452995.0,286046993.5,N
1500452996.0,286046993.5,N
1500453015.8,286046994.8,N
1500453035.6,286046994.0,N
1500453055.5,286046996.3,N
1500453075.3,286046993.5,N
1500453095.1,286046993.6,N
1500453115.9,286046994.1,N
1500453135.7,286046994.0,N
1500453155.6,286046993.5,N
1500453175.4,286046993.7,N
1500453195.2,286046993.7,N
1500453215.1,286046994.4,N
1500453216.0,286046994.4,N
1500453235.8,286046991.7,N
1500453255.6,286046991.9,N
1500453275.5,286046992.2,N
1500453295.3,286046994.8,N
1500453315.2,286046994.4,N
1500453335.9,286046992.3,N
1500453355.7,286046991.9,N
1500453375.6,286046994.4,N
1500453395.4,286046994.2,N
1500453415.2,286046994.4,N
1500453435.1,286046994.7,N
1500453436.0,286046994.7,N
1500453455.8,286046994.4,N
1500453475.7,286046994.2,N
1500453495.5,286046994.4,N
1500453515.3,286046993.6,N
1500453535.2,286046994.6,N
1500453555.0,286046994.6,N
1500453555.9,286046994.6,N
1500453575.8,286046994.3,N
1500453595.6,286046994.7,N
1500453615.4,286046994.8,N
1500453635.3,286046992.0,N
1500453655.1,286046992.1,N
1500453675.8,286046992.1,N
1500453695.7,286046994.7,N
1500453715.5,286046994.8,N
1500453735.4,286046991.9,N
1500453755.2,286046992.2,N
1500453775.0,286046992.1,N
1500453775.9,286046992.1,N
1500453795.8,286046991.9,N
1500453815.6,286046991.7,N
1500453835.4,286046991.9,N
1500453855.3,286046990.5,N
1500453875.1,286046993.2,N
1500453895.9,286046993.0,N
1500453915.7,286046992.9,N
1500453935.5,286046990.2,N
1500453955.4,286046990.2,N
1500453975.2,286046991.8,N
1500453995.1,286046992.0,N
1500453996.0,286046992.0,N
1500454015.8,286046992.1,N
1500454035.6,286046994.8,N
1500454055.5,286046994.2,N
1500454075.3,286046993.6,N
1500454095.2,286046996.3,N
1500454115.9,286046994.1,N
1500454135.7,286046993.9,N
1500454155.6,286046994.2,N
1500454175.4,286046994.2,N
1500454195.2,286046992.6,N
1500454215.1,286046992.8,N
1500454216.0,286046992.8,N
1500454235.8,286046990.1,N
1500454255.7,286046992.4,N
1500454275.5,286046991.7,N
1500454295.3,286046994.4,N
1500454315.2,286046992.2,N
1500454335.0,286046993.0,N
1500454335.9,286046993.0,N
1500454355.8,286046991.7,N
1500454375.6,286046994.7,N
1500454395.4,286046994.5,N
1500454415.3,286046991.8,N
1500454435.1,286046993.0,N
1500454436.0,286046993.0,N
1500454455.8,286046990.2,N
1500454475.7,286046990.2,N
1500454495.5,286046991.4,N
1500454515.4,286046990.8,N
1500454535.2,286046991.5,N
1500454555.0,286046991.5,N
1500454555.9,286046991.5,N
1500454575.8,286046989.4,N
1500454595.6,286046989.8,N
1500454615.4,286046989.6,N
1500454635.3,286046989.7,N
1500454655.1,286046989.1,N
1500454675.9,286046986.9,N
1500454695.7,286046987.4,N
1500454715.5,286046987.8,N
1500454735.4,286046988.2,N
1500454755.2,286046985.7,Y
1500454775.0,286046990.1,N
1500454776.0,286046990.1,N
1500454795.8,286046990.6,N
